DW2431 Weather Reports


Display with metric or nautical units.
time (UTC)temp
F
wind
direction
speed
MPH
gust
MPH
rain 1hr
in
rain 24hr
in
rain mn
in
humidity
%
barometer
mb
20181115191703 35 115 0.0 0.0 0.02 0.04 0.04 91 991.8
20181115190116 36 115 0.0 0.0 0.02 0.04 0.04 91 991.6
20181115184614 36 115 0.0 0.0 0.01 0.03 0.03 90 991.6
20181115183033 36 115 0.0 0.0 0.01 0.02 0.02 90 991.4
20181115181559 36 114 0.0 0.0 0.01 0.02 0.02 90 991.2
20181115180044 36 114 0.0 0.0 0.01 0.02 0.02 89 991.0
20181115174542 37 114 0.0 0.0 0.02 0.02 0.02 88 991.0
20181115173051 37 115 0.0 0.0 0.01 0.02 0.02 88 990.9
20181115171618 37 115 0.0 0.0 0.01 0.02 0.02 87 990.8
20181115170044 37 115 0.0 0.0 0.01 0.01 0.01 87 990.6
20181115164616 37 115 0.0 0.0 0.01 0.01 0.01 86 990.6
20181115163037 37 115 0.0 0.0 0.01 0.01 0.01 85 990.3
20181115161532 38 114 1.0 3.0 0.01 0.01 0.01 84 990.2
20181115160035 38 115 0.0 2.0 0.00 0.00 0.00 83 990.1
20181115154550 38 115 0.0 3.0 0.00 0.00 0.00 82 990.0
20181115153029 38 115 1.0 4.0 0.00 0.00 0.00 82 989.8
20181115151543 38 115 3.0 7.0 0.00 0.00 0.00 81 989.6
20181115150046 38 104 3.0 7.0 0.00 0.00 0.00 81 989.5
20181115144522 38 103 6.0 9.0 0.00 0.00 0.00 81 989.4
20181115143022 38 104 7.0 10.0 0.00 0.00 0.00 81 989.2
20181115141533 38 90 6.0 11.0 0.00 0.00 0.00 81 989.2
20181115140025 38 234 0.0 3.0 0.00 0.00 0.00 80 989.1
20181115134556 38 234 1.0 4.0 0.00 0.00 0.00 81 989.1
20181115133045 38 234 1.0 3.0 0.00 0.00 0.00 80 989.2
20181115131542 38 234 0.0 0.0 0.00 0.00 0.00 80 989.1
20181115130045 38 234 0.0 0.0 0.00 0.00 0.00 80 989.0
20181115124525 38 234 0.0 0.0 0.00 0.00 0.00 80 988.9
20181115123036 38 234 1.0 2.0 0.00 0.00 0.00 80 988.9
20181115121513 38 235 0.0 3.0 0.00 0.00 0.00 80 988.7
20181115120017 38 235 1.0 4.0 0.00 0.00 0.00 79 988.6
20181115114606 38 235 3.0 7.0 0.00 0.00 0.00 79 988.5
20181115113013 37 209 4.0 8.0 0.00 0.00 0.00 80 988.4
20181115111547 37 214 4.0 7.0 0.00 0.00 0.00 79 988.2
20181115110010 37 234 5.0 7.0 0.00 0.00 0.00 80 988.0
20181115104509 37 228 4.0 8.0 0.00 0.00 0.00 80 987.6
20181115103017 37 281 4.0 7.0 0.00 0.00 0.00 79 987.5
20181115101508 37 307 2.0 6.0 0.00 0.00 0.00 79 987.4
20181115100007 38 27 1.0 3.0 0.00 0.00 0.00 79 987.3
20181115094515 38 27 2.0 6.0 0.00 0.00 0.00 78 987.1
20181115093005 38 24 6.0 13.0 0.00 0.00 0.00 79 987.1
20181115090001 38 57 2.0 4.0 0.00 0.00 0.00 78 986.9
20181115084614 38 57 0.0 0.0 0.00 0.00 0.00 77 986.9
20181115083148 38 57 1.0 3.0 0.00 0.00 0.00 77 986.8
20181115081649 38 57 3.0 5.0 0.00 0.00 0.00 76 986.6
20181115080125 38 32 0.0 3.0 0.00 0.00 0.00 76 986.5
20181115074639 38 32 1.0 14.0 0.00 0.00 0.00 75 986.4
20181115073149 38 57 4.0 10.0 0.00 0.00 0.00 76 986.5
20181115071731 38 44 4.0 9.0 0.00 0.00 0.00 76 986.4
20181115070157 38 37 6.0 10.0 0.00 0.00 0.00 76 986.5
20181115064632 38 39 9.0 17.0 0.00 0.00 0.00 75 986.4
20181115063253 38 64 7.0 14.0 0.00 0.00 0.00 75 986.3
20181115061632 38 104 7.0 17.0 0.00 0.00 0.00 76 986.4
20181115060126 39 53 6.0 14.0 0.00 0.00 0.00 75 986.4
20181115054640 38 74 7.0 12.0 0.00 0.00 0.00 77 986.3
20181115053104 38 76 5.0 11.0 0.00 0.00 0.00 78 986.5
20181115051631 37 81 4.0 9.0 0.00 0.00 0.00 79 986.6
20181115050120 37 102 3.0 6.0 0.00 0.00 0.00 80 986.6
20181115044625 37 20 1.0 3.0 0.00 0.00 0.00 80 986.9
20181115043106 37 20 1.0 4.0 0.00 0.00 0.00 79 986.9
20181115041639 37 20 1.0 4.0 0.00 0.00 0.00 79 987.2
20181115040159 38 20 1.0 3.0 0.00 0.00 0.00 78 987.3
20181115034601 38 21 4.0 9.0 0.00 0.00 0.00 78 987.5
20181115033054 38 102 4.0 9.0 0.00 0.00 0.00 78 987.7
20181115031556 38 103 5.0 9.0 0.00 0.00 0.00 79 987.8
20181115030048 36 101 2.0 8.0 0.00 0.00 0.00 82 988.0
20181115024529 36 73 3.0 4.0 0.00 0.00 0.00 80 988.5
20181115023048 37 63 2.0 4.0 0.00 0.00 0.00 80 988.7
20181115021543 37 9 0.0 0.0 0.00 0.00 0.00 80 988.8
20181115020022 37 9 0.0 0.0 0.00 0.00 0.00 80 989.1
20181115014540 37 9 0.0 0.0 0.00 0.00 0.00 79 989.3
20181115013047 38 9 0.0 0.0 0.00 0.00 0.00 79 989.9
20181115011515 38 9 1.0 2.0 0.00 0.00 0.00 78 990.2
20181115010012 38 24 3.0 5.0 0.00 0.00 0.00 78 990.6
20181115004513 37 355 2.0 4.0 0.00 0.00 0.00 80 991.2
20181115003014 36 355 2.0 5.0 0.00 0.00 0.00 80 991.7
20181115000133 37 73 3.0 4.0 0.00 0.00 0.00 78 992.2
20181114234640 38 87 1.0 8.0 0.00 0.00 0.00 79 992.6
20181114233143 37 43 4.0 9.0 0.00 0.00 0.00 81 992.5
20181114231632 36 119 2.0 4.0 0.00 0.00 0.00 83 993.0
20181114230133 36 119 0.0 4.0 0.00 0.00 0.00 83 993.1
20181114224742 36 119 1.0 6.0 0.00 0.00 0.00 84 993.5
20181114223136 36 109 3.0 6.0 0.00 0.00 0.00 84 993.5
20181114221614 36 97 2.0 4.0 0.00 0.00 0.00 83 993.6
20181114220130 37 97 3.0 4.0 0.00 0.00 0.00 83 994.0
20181114214632 37 93 3.0 9.0 0.00 0.00 0.00 84 994.1
20181114213140 37 114 9.0 16.0 0.00 0.00 0.00 85 994.4
20181114211637 37 115 7.0 12.0 0.00 0.00 0.00 87 994.7
20181114210201 37 134 10.0 15.0 0.00 0.00 0.00 89 994.8
20181114204710 36 128 3.0 9.0 0.00 0.00 0.00 90 994.9
20181114203145 36 132 4.0 9.0 0.00 0.00 0.00 90 995.2
20181114201607 37 98 3.0 9.0 0.00 0.00 0.00 90 995.6
20181114200205 37 80 9.0 14.0 0.00 0.00 0.00 91 995.6
20181114194633 36 116 4.0 8.0 0.00 0.00 0.00 92 995.7
20181114193049 37 113 5.0 10.0 0.00 0.00 0.00 93 996.1